Weather History for Menominee, MI

Change the Weather History Date:

Saturday, October 6, 2012

  Actual Average Record
Temperature  
Mean Temperature 40 °F -  
Max Temperature 46 °F 61 °F 89 °F (1963)
Min Temperature 35 °F 42 °F 25 °F (1952)
Degree Days  
Heating Degree Days 24    
Moisture  
Dew Point 28 °F    
Average Humidity 67    
Maximum Humidity 81    
Minimum Humidity 50    
Precipitation  
Precipitation 0.00 in - - ()
Sea Level Pressure  
Sea Level Pressure 30.03 in    
Wind  
Wind Speed 7 mph (NW)    
Max Wind Speed 18 mph    
Max Gust Speed 25 mph    
Visibility 10 miles    
Events      
Averages and records for this station are not official NWS values.
T = Trace of Precipitation, MM = Missing Value Source: NWS Daily Summary

Daily Weather History Graph

Daily Weather History Graph

Search for Another Location

Airport:

Trip Planner

Search our weather history database for the weather conditions in past years. The results will help you decide how hot, cold, wet, or windy it might be!

Date:

Astronomy

Oct. 06, 2012 Rise Set
Actual Time 6:55 AM CDT 6:20 PM CDT
Civil Twilight 6:26 AM CDT 6:50 PM CDT
Nautical Twilight 5:52 AM CDT 7:24 PM CDT
Astronomical Twilight 5:17 AM CDT 7:58 PM CDT
Moon 10:23 PM CDT (10/6) 1:02 PM CDT (10/6)
Length of Visible Light 12h 23m
Length of Day
11h 25m
Waning Gibbous, 65% of the Moon is Illuminated
Oct 6
Waning Gibbous
Oct 8
Last Quarter
Oct 15
New
Oct 21
First Quarter
Oct 29
Full

Hourly Weather History & Observations

Time (CDT) Temp. Windchill Dew Point Humidity Pressure Visibility Wind Dir Wind Speed Gust Speed Precip Events Conditions
12:15 AM 39.2 °F 34.2 °F 24.8 °F 56% 29.92 in 10.0 mi West 6.9 mph - N/A   Clear
12:35 AM 39.2 °F 33.6 °F 26.6 °F 61% 29.92 in 10.0 mi West 8.1 mph - N/A   Clear
12:55 AM 39.2 °F 34.2 °F 26.6 °F 61% 29.92 in 10.0 mi West 6.9 mph - N/A   Clear
1:15 AM 39.2 °F 35.9 °F 26.6 °F 61% 29.92 in 10.0 mi West 4.6 mph - N/A   Partly Cloudy
1:55 AM 39.2 °F 34.2 °F 28.4 °F 65% 29.93 in 10.0 mi West 6.9 mph - N/A   Mostly Cloudy
2:15 AM 39.2 °F 34.2 °F 28.4 °F 65% 29.93 in 10.0 mi WNW 6.9 mph - N/A   Partly Cloudy
2:35 AM 39.2 °F 35.9 °F 28.4 °F 65% 29.93 in 10.0 mi WNW 4.6 mph - N/A   Scattered Clouds
2:55 AM 37.4 °F 33.8 °F 28.4 °F 70% 29.93 in 10.0 mi West 4.6 mph - N/A   Mostly Cloudy
3:15 AM 37.4 °F 33.8 °F 28.4 °F 70% 29.93 in 10.0 mi West 4.6 mph - N/A   Partly Cloudy
3:35 AM 37.4 °F 32.8 °F 28.4 °F 70% 29.93 in 10.0 mi West 5.8 mph - N/A   Scattered Clouds
3:55 AM 37.4 °F 33.8 °F 28.4 °F 70% 29.94 in 10.0 mi West 4.6 mph - N/A   Mostly Cloudy
4:35 AM 35.6 °F 32.8 °F 30.2 °F 81% 29.95 in 10.0 mi West 3.5 mph - N/A   Partly Cloudy
4:55 AM 35.6 °F 30.7 °F 28.4 °F 75% 29.95 in 10.0 mi West 5.8 mph - N/A   Mostly Cloudy
5:15 AM 35.6 °F 30.7 °F 30.2 °F 81% 29.96 in 10.0 mi West 5.8 mph - N/A   Overcast
5:35 AM 35.6 °F 29.9 °F 30.2 °F 81% 29.96 in 10.0 mi WNW 6.9 mph - N/A   Mostly Cloudy
5:55 AM 35.6 °F 32.8 °F 30.2 °F 81% 29.97 in 10.0 mi WNW 3.5 mph - N/A   Partly Cloudy
6:15 AM 35.6 °F 32.8 °F 30.2 °F 81% 29.98 in 10.0 mi WNW 3.5 mph - N/A   Partly Cloudy
6:35 AM 35.6 °F 32.8 °F 30.2 °F 81% 29.98 in 10.0 mi WNW 3.5 mph - N/A   Partly Cloudy
6:55 AM 35.6 °F 32.8 °F 30.2 °F 81% 29.99 in 10.0 mi NW 3.5 mph - N/A   Clear
7:15 AM 35.6 °F 32.8 °F 30.2 °F 81% 30.00 in 10.0 mi WNW 3.5 mph - N/A   Clear
7:35 AM 35.6 °F 30.7 °F 28.4 °F 75% 30.00 in 10.0 mi West 5.8 mph - N/A   Clear
7:55 AM 37.4 °F 33.8 °F 30.2 °F 75% 30.01 in 10.0 mi WNW 4.6 mph - N/A   Clear
8:15 AM 37.4 °F 32.1 °F 30.2 °F 75% 30.02 in 10.0 mi WNW 6.9 mph - N/A   Clear
8:35 AM 37.4 °F 31.4 °F 30.2 °F 75% 30.03 in 10.0 mi NW 8.1 mph - N/A   Clear
8:55 AM 39.2 °F 33.0 °F 30.2 °F 70% 30.03 in 10.0 mi NW 9.2 mph - N/A   Partly Cloudy
9:15 AM 39.2 °F 32.5 °F 30.2 °F 70% 30.03 in 10.0 mi NNW 10.4 mph 19.6 mph N/A   Clear
9:55 AM 42.8 °F 37.0 °F 30.2 °F 61% 30.04 in 10.0 mi NNW 10.4 mph 17.3 mph N/A   Clear
10:15 AM 42.8 °F 36.6 °F 30.2 °F 61% 30.05 in 10.0 mi NW 11.5 mph 24.2 mph N/A   Scattered Clouds
10:35 AM - - - N/A% 30.04 in 10.0 mi NNW 18.4 mph 25.3 mph N/A   Mostly Cloudy
10:55 AM 44.6 °F 38.1 °F 28.4 °F 53% 30.05 in 10.0 mi NW 13.8 mph 21.9 mph N/A   Partly Cloudy
11:15 AM 44.6 °F 37.8 °F 28.4 °F 53% 30.06 in 10.0 mi NNW 15.0 mph 20.7 mph N/A   Partly Cloudy
11:35 AM 46.4 °F 41.1 °F 28.4 °F 50% 30.06 in 10.0 mi NNW 11.5 mph 17.3 mph N/A   Mostly Cloudy
11:55 AM - - - N/A% 30.06 in 10.0 mi NNW 15.0 mph 23.0 mph N/A   Mostly Cloudy
12:15 PM - - - N/A% 30.06 in 10.0 mi NNW 12.7 mph 23.0 mph N/A   Overcast
7:55 PM 41.0 °F 36.4 °F 28.4 °F 61% 30.15 in 10.0 mi NNW 6.9 mph - N/A   Overcast
8:15 PM 39.2 °F 35.0 °F 26.6 °F 61% 30.15 in 10.0 mi NNW 5.8 mph - N/A   Overcast
8:35 PM 39.2 °F 34.2 °F 26.6 °F 61% 30.16 in 10.0 mi NNW 6.9 mph - N/A   Overcast
8:55 PM 39.2 °F 35.0 °F 24.8 °F 56% 30.16 in 10.0 mi NNW 5.8 mph - N/A   Overcast
9:15 PM 39.2 °F 33.6 °F 24.8 °F 56% 30.16 in 10.0 mi NNW 8.1 mph - N/A   Overcast
9:35 PM 39.2 °F 34.2 °F 24.8 °F 56% 30.16 in 10.0 mi NNW 6.9 mph - N/A   Overcast
9:55 PM 39.2 °F 35.0 °F 24.8 °F 56% 30.16 in 10.0 mi NNW 5.8 mph - N/A   Overcast
10:15 PM 39.2 °F 35.9 °F 26.6 °F 61% 30.17 in 10.0 mi NW 4.6 mph - N/A   Overcast
10:35 PM 39.2 °F 37.0 °F 26.6 °F 61% 30.17 in 10.0 mi NNW 3.5 mph - N/A   Overcast
10:55 PM 39.2 °F 37.0 °F 26.6 °F 61% 30.16 in 10.0 mi NNW 3.5 mph - N/A   Overcast
11:15 PM 39.2 °F 37.0 °F 26.6 °F 61% 30.16 in 10.0 mi NNW 3.5 mph - N/A   Overcast
11:35 PM 37.4 °F 34.9 °F 26.6 °F 65% 30.16 in 10.0 mi NNW 3.5 mph - N/A   Overcast
11:55 PM 37.4 °F 34.9 °F 26.6 °F 65% 30.16 in 10.0 mi NNW 3.5 mph - N/A   Overcast